[[{"header":{"parameterUnit":"m.s-1","parameterCategory":1,"la1":30.2991,"la2":30.254,"lo1":-89.0895,"lo2":-89.0444,"dy":0.0017,"dx":0.0017,"nx":28,"ny":28,"refTime":"2024-07-15T21:00:00:Z","depth":0,"parameterNumber":2,"parameterNumberName":"U-component_of_WINDS"},"data":[0,0,0,0,0,0,0,0,0,0,0,0,0,0,0,0,0,0,0,0,0,0,0,0,0,0,0,0,0,0,0,0,0,0,0,0,0,0,0,0,0,0,0,0,0,0,0,0,0,0,0,0,0,0,0,0,0,0,1.9196,1.9197,0,1.9307,1.9308,1.9309,1.9367,1.9367,1.9367,1.9367,1.9484,1.9487,1.949,0,0,0,0,0,0,0,0,0,0,0,0,0,1.9037,1.904,1.9196,1.9197,1.9199,1.9307,1.9308,1.931,1.9367,1.9367,1.9367,1.9367,1.9483,1.9487,1.949,0,0,0,0,0,0,0,0,0,0,0,0,0,1.9123,1.9041,1.9196,1.924,1.9245,1.9306,1.9308,1.931,1.9367,1.9367,1.9367,1.9367,1.9482,1.9486,1.9491,1.9517,0,0,1.9505,1.9507,0,0,0,0,0,0,0,0,1.9118,1.9129,1.9232,1.9237,1.9243,1.9323,1.9295,1.938,1.9367,1.9321,1.9367,1.9367,1.9431,1.944,1.946,1.9522,1.9527,1.9505,1.9508,1.951,1.9511,0,0,0,0,0,0,0,1.9112,1.9124,1.924,1.9234,1.924,1.9256,1.9268,1.9311,1.9374,1.9325,1.9329,1.9342,1.9434,1.9456,1.9463,1.9529,1.9505,1.9509,1.9512,1.9514,1.9618,1.9618,0,0,0,0,0,0,1.9098,1.9119,1.9236,1.9243,1.9179,1.9259,1.9272,1.9297,1.9374,1.9385,1.9341,1.9344,1.9448,1.9458,1.9468,1.9503,1.951,1.9514,1.9517,1.9618,1.9618,1.9618,0,0,0,0,0,0,1.9095,1.9108,1.9232,1.9182,1.9199,1.9261,1.9289,1.93,1.9322,1.9386,1.9398,1.9352,1.9448,1.9461,1.9504,1.9508,1.9516,1.952,1.9618,1.9618,1.9618,1.9574,0,0,0,0,0,0,1.909,1.9107,1.9116,1.9182,1.9202,1.9265,1.9289,1.9302,1.9329,1.9333,1.9399,1.941,1.9449,1.9497,1.9508,1.9514,1.9524,1.9618,1.9618,1.9618,1.9575,1.9572,1.957,0,0,0,0,0,1.9084,1.91,1.9117,1.913,1.9215,1.9265,1.9277,1.932,1.9329,1.934,1.9381,1.9408,1.9505,1.9501,1.9514,1.9522,1.9618,1.9618,1.9618,1.9576,1.9573,1.957,0,0,0,0,0,0,1.9035,1.911,1.9129,1.9166,1.9209,1.9275,1.929,1.9315,1.9357,1.936,1.9413,1.9428,1.9465,1.9498,1.9491,1.9551,1.9565,1.9567,1.9528,1.9525,1.9523,1.9514,1.9528,0,0,0,0,0,1.9028,1.9061,1.9126,1.9153,1.9173,1.9227,1.9251,1.9281,1.9328,1.9346,1.9391,1.9436,1.9477,1.9503,1.9544,1.958,1.9595,1.9592,1.9589,1.9587,1.9588,1.961,1.9609,1.9619,1.9619,1.9619,0,0,1.9015,1.906,1.9078,1.9144,1.918,1.9215,1.9242,1.9278,1.9304,1.9352,1.9395,1.9429,1.9483,1.9522,1.9542,1.9551,1.9589,1.9587,1.9584,1.9588,1.961,1.9609,1.9608,1.9619,1.9619,1.9619,0,0,1.9008,1.9045,1.9072,1.9108,1.9162,1.9198,1.9205,1.9267,1.9291,1.9335,1.9371,1.9404,1.9473,1.951,1.9538,1.9545,1.9571,1.9557,1.9543,1.9563,1.9562,1.9562,1.9564,1.9564,1.9559,1.9558,1.9558,0,1.8985,1.9037,1.9083,1.9116,1.9144,1.9188,1.9215,1.9248,1.9314,1.9333,1.9341,1.9429,1.9468,1.9517,1.9518,1.9539,1.9548,1.955,1.9559,1.9559,1.9559,1.9562,1.9563,1.9556,1.9557,1.9557,1.9557,0,1.9006,1.9042,1.9057,1.9118,1.9148,1.9178,1.9229,1.9254,1.9281,1.9316,1.936,1.9409,1.9461,1.9475,1.9502,1.9527,1.9531,1.9548,1.9563,1.9555,1.9559,1.956,1.9553,1.9554,1.9555,1.9555,0,0,1.8972,1.9057,1.9062,1.909,1.9153,1.9182,1.9214,1.9264,1.9284,1.9328,1.9357,1.9414,1.943,1.9462,1.9494,1.9512,1.9514,1.9528,1.953,1.9523,1.9544,1.953,1.9531,1.9532,1.9532,1.9533,1.954,0,1.8974,1.9033,1.9075,1.9118,1.9152,1.9194,1.9222,1.9265,1.9299,1.9333,1.9371,1.9411,1.943,1.9449,1.9468,1.9509,1.9519,1.951,1.956,1.9561,1.9544,1.9533,1.9518,1.9522,1.9541,1.9542,1.9542,0,1.8985,1.9026,1.9072,1.9131,1.9147,1.9172,1.922,1.9252,1.9301,1.9325,1.9359,1.9392,1.9429,1.9441,1.9492,1.9485,1.9508,1.9532,1.9533,1.9539,1.9551,1.9538,1.9525,1.9525,1.9544,1.9544,1.9544,0,1.8954,1.9022,1.9058,1.9081,1.9151,1.9167,1.9197,1.9246,1.9273,1.9316,1.9334,1.9381,1.9407,1.9443,1.9487,1.9492,1.9534,1.955,1.9555,1.9554,1.9563,1.9561,1.9552,1.9578,1.9578,1.9578,1.9577,0,1.8953,1.8979,1.9045,1.9067,1.9099,1.9147,1.9176,1.921,1.9254,1.9284,1.9324,1.9351,1.9409,1.9444,1.9479,1.9516,1.9528,1.9548,1.9557,1.9545,1.9542,1.956,1.9561,1.9578,1.9578,1.9578,1.9578,0,1.8924,1.8969,1.9011,1.9074,1.9091,1.9111,1.9165,1.9189,1.9224,1.9262,1.9274,1.9331,1.9374,1.9422,1.9481,1.9505,1.954,1.9553,1.9523,1.9528,1.9531,1.953,1.9533,1.9536,1.9559,1.9559,1.9558,0,1.892,1.8941,1.9006,1.9028,1.9057,1.9093,1.912,1.9168,1.9195,1.9253,1.9269,1.9315,1.9354,1.9421,1.9468,1.9514,1.9529,1.9527,1.9536,1.9522,1.9528,1.9526,1.9529,1.9524,1.9523,1.9523,1.9523,0,1.8907,1.8928,1.8966,1.9011,1.9042,1.908,1.912,1.9136,1.9193,1.9221,1.9265,1.9295,1.9355,1.94,1.9452,1.9484,1.9513,1.9519,1.9523,1.951,1.9491,1.9501,1.9515,1.9519,1.9519,1.952,1.952,1.952,1.8891,1.8911,1.896,1.9,1.9035,1.9071,1.9096,1.9135,1.9172,1.9223,1.925,1.9293,1.9342,1.9414,1.9445,1.9481,1.949,1.9495,1.9497,1.9497,1.9493,1.9486,1.949,1.9491,1.9491,1.9491,1.9491,0,1.888,1.8913,1.8949,1.9003,1.9035,1.9058,1.9103,1.9129,1.9166,1.9209,1.9246,1.9296,1.934,1.939,1.9437,1.9456,1.947,1.9467,1.9466,1.9473,1.9483,1.9474,1.9454,1.9454,1.9454,1.9454,1.9454,1.9454,1.8877,1.8914,1.894,1.8994,1.9028,1.907,1.9094,1.9127,1.9162,1.9215,1.9252,1.9284,1.933,1.938,1.9422,1.9436,1.9451,1.9443,1.9461,1.9469,1.9472,1.9475,1.9468,1.9446,1.9446,1.9448,1.9448,1.9448]},{"header":{"parameterUnit":"m.s-1","parameterCategory":1,"la1":30.2991,"la2":30.254,"lo1":-89.0895,"lo2":-89.0444,"dy":0.0017,"dx":0.0017,"nx":28,"ny":28,"refTime":"2024-07-15T21:00:00:Z","depth":0,"parameterNumber":3,"parameterNumberName":"V-component_of_WINDS"},"data":[0,0,0,0,0,0,0,0,0,0,0,0,0,0,0,0,0,0,0,0,0,0,0,0,0,0,0,0,0,0,0,0,0,0,0,0,0,0,0,0,0,0,0,0,0,0,0,0,0,0,0,0,0,0,0,0,0,0,2.5436,2.5436,0,2.5445,2.5445,2.5445,2.5455,2.5455,2.5455,2.5455,2.5462,2.5462,2.5462,0,0,0,0,0,0,0,0,0,0,0,0,0,2.5424,2.5424,2.5436,2.5436,2.5436,2.5445,2.5445,2.5445,2.5455,2.5455,2.5455,2.5455,2.5462,2.5462,2.5462,0,0,0,0,0,0,0,0,0,0,0,0,0,2.543,2.5424,2.5436,2.5442,2.5443,2.5445,2.5445,2.5445,2.5455,2.5455,2.5455,2.5456,2.5462,2.5462,2.5462,2.5458,0,0,2.5462,2.5463,0,0,0,0,0,0,0,0,2.543,2.5431,2.5441,2.5442,2.5443,2.5449,2.5443,2.545,2.5455,2.545,2.5455,2.5456,2.5457,2.5458,2.5459,2.5459,2.5459,2.5462,2.5463,2.5463,2.5463,0,0,0,0,0,0,0,2.543,2.543,2.544,2.5441,2.5442,2.5443,2.5445,2.5445,2.5452,2.5451,2.5451,2.5452,2.5458,2.5459,2.5459,2.5459,2.5462,2.5463,2.5463,2.5463,2.5454,2.5453,0,0,0,0,0,0,2.5429,2.543,2.5439,2.544,2.5437,2.5443,2.5445,2.5447,2.5453,2.5454,2.5452,2.5453,2.5459,2.5459,2.546,2.5454,2.5463,2.5463,2.5463,2.5454,2.5453,2.5453,0,0,0,0,0,0,2.5428,2.5429,2.5439,2.5435,2.5437,2.5443,2.5446,2.5447,2.5448,2.5454,2.5455,2.5452,2.5459,2.5459,2.5458,2.5455,2.5463,2.5463,2.5454,2.5454,2.5453,2.5444,0,0,0,0,0,0,2.5428,2.5429,2.5429,2.5435,2.5437,2.5439,2.5445,2.5447,2.5448,2.5449,2.5454,2.5455,2.5459,2.5458,2.5458,2.5455,2.5463,2.5454,2.5454,2.5453,2.5445,2.5443,2.5442,0,0,0,0,0,2.5427,2.5426,2.5429,2.543,2.5437,2.5439,2.5439,2.5445,2.5448,2.5447,2.545,2.5455,2.5455,2.5458,2.5458,2.5455,2.5455,2.5454,2.5453,2.5445,2.5444,2.5442,0,0,0,0,0,0,2.5419,2.5427,2.543,2.5431,2.5434,2.544,2.5439,2.5443,2.5445,2.5446,2.5452,2.5452,2.545,2.5452,2.5456,2.545,2.5455,2.5455,2.5449,2.5447,2.5446,2.5445,2.5463,0,0,0,0,0,2.5417,2.5419,2.5425,2.5425,2.5427,2.5433,2.5434,2.5437,2.5441,2.5442,2.5445,2.5447,2.5447,2.5447,2.5448,2.5445,2.5445,2.5442,2.5441,2.544,2.5439,2.5435,2.5434,2.5451,2.5451,2.5451,0,0,2.5413,2.5418,2.5419,2.5424,2.5426,2.5427,2.5434,2.5434,2.5434,2.5442,2.5441,2.5443,2.5445,2.5442,2.5441,2.5444,2.5434,2.5439,2.5438,2.5438,2.5435,2.5433,2.5431,2.5451,2.5451,2.5451,0,0,2.5406,2.5411,2.541,2.5413,2.5417,2.5421,2.542,2.5426,2.5427,2.5427,2.5431,2.5431,2.5432,2.5433,2.5433,2.5424,2.5428,2.5424,2.5418,2.5414,2.5413,2.5411,2.5407,2.5405,2.5424,2.5424,2.5424,0,2.5401,2.5403,2.5409,2.5409,2.5411,2.5417,2.5416,2.5418,2.5421,2.5421,2.5425,2.5424,2.5427,2.5423,2.5421,2.5422,2.542,2.5424,2.5412,2.5411,2.541,2.5406,2.5404,2.5423,2.5423,2.5423,2.5423,0,2.5396,2.5397,2.5396,2.5399,2.54,2.54,2.5404,2.5404,2.5407,2.541,2.5408,2.541,2.5411,2.541,2.5413,2.5406,2.5408,2.5412,2.5417,2.5408,2.5404,2.5402,2.5422,2.5423,2.5423,2.5423,0,0,2.5385,2.5391,2.5391,2.5391,2.5395,2.5396,2.5394,2.5395,2.5394,2.5396,2.5394,2.5393,2.5396,2.5397,2.54,2.5396,2.5387,2.54,2.54,2.5397,2.5377,2.5374,2.5372,2.5389,2.5389,2.5389,2.5377,0,2.5379,2.5378,2.5382,2.5379,2.5379,2.5384,2.5383,2.5384,2.5386,2.5385,2.5387,2.5386,2.539,2.539,2.5388,2.5389,2.5383,2.539,2.5386,2.5386,2.5385,2.537,2.5367,2.5356,2.5375,2.5375,2.5375,0,2.5372,2.5373,2.537,2.5372,2.5372,2.5371,2.5371,2.5371,2.5371,2.5373,2.5372,2.5375,2.5372,2.5377,2.5372,2.5376,2.5374,2.5375,2.5374,2.5374,2.5379,2.5368,2.5353,2.535,2.5373,2.5373,2.5373,0,2.5363,2.5364,2.5362,2.5362,2.5365,2.5364,2.5365,2.5366,2.5365,2.5365,2.5364,2.5363,2.5362,2.536,2.5362,2.5366,2.5355,2.5361,2.5355,2.5355,2.5353,2.5353,2.5335,2.5353,2.5353,2.5353,2.5353,0,2.5355,2.5353,2.5358,2.5356,2.5353,2.5357,2.5354,2.5355,2.5355,2.5353,2.5357,2.5354,2.5357,2.5355,2.5356,2.535,2.535,2.535,2.535,2.5349,2.5349,2.5348,2.5348,2.5352,2.5352,2.5353,2.5353,0,2.5345,2.5349,2.5347,2.5349,2.5349,2.5347,2.5348,2.5346,2.5347,2.5344,2.5343,2.5345,2.5342,2.5344,2.534,2.5341,2.5333,2.5335,2.5333,2.5333,2.5326,2.5326,2.5307,2.5304,2.5324,2.5324,2.5324,0,2.534,2.5339,2.534,2.5339,2.534,2.5338,2.5338,2.5341,2.5339,2.5338,2.5336,2.5333,2.5331,2.5325,2.5325,2.5321,2.5322,2.5316,2.5322,2.532,2.5321,2.532,2.5319,2.5314,2.5314,2.5314,2.5314,0,2.533,2.5331,2.5331,2.5329,2.5328,2.5328,2.5327,2.5326,2.5328,2.5326,2.5323,2.5321,2.5317,2.5313,2.5309,2.5309,2.5311,2.5312,2.531,2.5309,2.5307,2.5307,2.5329,2.5312,2.5312,2.5313,2.5313,2.5313,2.5322,2.532,2.532,2.5318,2.5318,2.5317,2.5314,2.5315,2.5313,2.531,2.5311,2.5307,2.5305,2.53,2.5299,2.5294,2.5297,2.5294,2.5294,2.5293,2.5291,2.5308,2.5294,2.5294,2.5294,2.5294,2.5294,0,2.5311,2.5311,2.531,2.5308,2.5306,2.5309,2.5307,2.5305,2.5301,2.53,2.5297,2.5292,2.5287,2.5286,2.5282,2.5278,2.5279,2.5277,2.5277,2.5276,2.529,2.5292,2.5276,2.5276,2.5276,2.5276,2.5276,2.5276,2.5306,2.5302,2.5302,2.5297,2.5297,2.5293,2.5292,2.529,2.5288,2.5282,2.5279,2.5278,2.5276,2.5271,2.5266,2.5266,2.5263,2.526,2.526,2.5273,2.5275,2.5277,2.5278,2.526,2.526,2.5246,2.5246,2.5246]}]]